User: anonymous   Login
Location: Unspecified
(0.0000°N, 0.0000°E)
Time: 16:20:28
(UTC+00:00)
Language:

Tiros 6 - Orbit

View from above orbital plane
View from above orbital plane
View from above satellite
View from above satellite

Ground track
Ground track

The orbit data is extracted from the following two-line orbital elements,

1 00397U 62047A   18115.30740308 -.00000050  00000-0  17828-4 0  9995
2 00397  58.3042 129.5390 0012200  47.1362 313.0705 14.88282075990181
Epoch (UTC): 25 April 2018 07:22:39
Eccentricity: 0.0012200
inclination: 58.3042°
perigee height: 595 km
apogee height: 612 km
right ascension of ascending node: 129.5390°
argument of perigee: 47.1362°
revolutions per day: 14.88282075
mean anomaly at epoch: 313.0705°
orbit number at epoch: 99018

The dashed part of the orbit path shows where the satellite is in the earth's shadow,  

DLR